"read_dt","SO2 (ppb)","flags","PMT voltage (V)","lamp voltage (V)","lamp intensity (Hz)","internal temp (C)","react chamber temp (C)","sample flow (l/min)","pres (mmHg)","SO2 bkg (ppb)","SO2 coefficient"
2015-03-07 00:00:00,1899E-3,5C000000,-0724,0837,12146,026.8,045.4,0.460,744.3,01.18,0.508
2015-03-07 00:01:00,1975E-3,5C000000,-0724,0837,12010,026.8,045.4,0.460,744.3,01.18,0.508
2015-03-07 00:02:00,1877E-3,5C000000,-0724,0837,12208,026.8,045.4,0.460,744.3,01.18,0.508
2015-03-07 00:03:00,1906E-3,5C000000,-0724,0837,12031,026.8,045.4,0.460,744.3,01.18,0.508
2015-03-07 00:04:00,1840E-3,5C000000,-0724,0837,12127,026.8,045.4,0.460,744.3,01.18,0.508
2015-03-07 00:05:00,1925E-3,5C000000,-0724,0837,11965,026.8,045.4,0.460,744.3,01.18,0.508
2015-03-07 00:06:00,1953E-3,5C000000,-0724,0836,11949,026.9,045.4,0.460,744.3,01.18,0.508
2015-03-07 00:07:00,1893E-3,5C000000,-0724,0838,12343,026.9,045.4,0.460,744.3,01.18,0.508
2015-03-07 00:08:00,1849E-3,5C000000,-0724,0837,12112,026.8,045.4,0.460,744.3,01.18,0.508
2015-03-07 00:09:00,1961E-3,5C000000,-0724,0837,12229,026.8,045.4,0.460,744.3,01.18,0.508
2015-03-07 00:10:00,1810E-3,5C000000,-0724,0837,12208,026.8,045.4,0.460,744.3,01.18,0.508
2015-03-07 00:11:00,1970E-3,5C000000,-0724,0836,12174,026.9,045.4,0.460,744.3,01.18,0.508
2015-03-07 00:12:00,1957E-3,5C000000,-0724,0838,12061,026.8,045.4,0.460,744.3,01.18,0.508
2015-03-07 00:13:00,2027E-3,5C000000,-0724,0836,12221,026.9,045.4,0.460,744.3,01.18,0.508
2015-03-07 00:14:00,1908E-3,5C000000,-0724,0837,12384,026.9,045.4,0.460,744.3,01.18,0.508
2015-03-07 00:15:00,1968E-3,5C000000,-0724,0836,12181,026.9,045.4,0.460,744.3,01.18,0.508
2015-03-07 00:16:00,1961E-3,5C000000,-0724,0835,12024,026.9,045.4,0.460,744.3,01.18,0.508
2015-03-07 00:17:00,1961E-3,5C000000,-0724,0837,12149,026.9,045.4,0.460,744.3,01.18,0.508
2015-03-07 00:18:00,1869E-3,5C000000,-0724,0836,12104,026.9,045.4,0.460,744.3,01.18,0.508
2015-03-07 00:19:00,1974E-3,5C000000,-0724,0836,12039,026.9,045.4,0.460,744.3,01.18,0.508
2015-03-07 00:20:00,1906E-3,5C000000,-0724,0836,12109,026.9,045.4,0.460,744.3,01.18,0.508
2015-03-07 00:21:00,1932E-3,5C000000,-0724,0837,12230,026.9,045.4,0.460,744.3,01.18,0.508
2015-03-07 00:22:00,1948E-3,5C000000,-0724,0837,12099,027.0,045.4,0.460,744.3,01.18,0.508
2015-03-07 00:23:00,1927E-3,5C000000,-0724,0837,12187,026.9,045.4,0.460,744.2,01.18,0.508
2015-03-07 00:24:00,1963E-3,5C000000,-0724,0837,12212,027.0,045.4,0.459,744.2,01.18,0.508
2015-03-07 00:25:00,1948E-3,5C000000,-0724,0837,12275,027.0,045.4,0.459,744.2,01.18,0.508
2015-03-07 00:26:00,1846E-3,5C000000,-0724,0837,12083,027.0,045.4,0.460,744.1,01.18,0.508
2015-03-07 00:27:00,1970E-3,5C000000,-0724,0837,12177,027.0,045.4,0.460,744.2,01.18,0.508
2015-03-07 00:28:00,1900E-3,5C000000,-0724,0836,12057,027.0,045.4,0.460,744.2,01.18,0.508
2015-03-07 00:29:00,1923E-3,5C000000,-0724,0838,12309,027.0,045.4,0.459,744.1,01.18,0.508
2015-03-07 00:30:00,1934E-3,5C000000,-0724,0837,12090,027.0,045.4,0.459,744.1,01.18,0.508
2015-03-07 00:31:00,1908E-3,5C000000,-0724,0836,12124,027.0,045.4,0.460,744.1,01.18,0.508
2015-03-07 00:32:00,1925E-3,5C000000,-0724,0837,12159,027.0,045.4,0.460,744.1,01.18,0.508
2015-03-07 00:33:00,1975E-3,5C000000,-0724,0837,12139,027.0,045.4,0.460,744.1,01.18,0.508
2015-03-07 00:34:00,1866E-3,5C000000,-0724,0836,12007,027.0,045.4,0.459,744.1,01.18,0.508
2015-03-07 00:35:00,1821E-3,5C000000,-0724,0837,12158,027.0,045.4,0.459,744.1,01.18,0.508
2015-03-07 00:36:00,1866E-3,5C000000,-0724,0836,12119,027.0,045.4,0.460,744.1,01.18,0.508
2015-03-07 00:37:00,1871E-3,5C000000,-0724,0836,12167,027.0,045.4,0.460,744.0,01.18,0.508
2015-03-07 00:38:00,1967E-3,5C000000,-0724,0836,12066,027.0,045.4,0.459,744.0,01.18,0.508
2015-03-07 00:39:00,1965E-3,5C000000,-0724,0837,11842,027.0,045.4,0.459,744.0,01.18,0.508
2015-03-07 00:40:00,1913E-3,5C000000,-0724,0836,12115,027.0,045.4,0.459,744.0,01.18,0.508
2015-03-07 00:41:00,1850E-3,5C000000,-0724,0836,12078,027.0,045.4,0.460,743.9,01.18,0.508
2015-03-07 00:42:00,1978E-3,5C000000,-0724,0836,12093,027.0,045.4,0.460,744.0,01.18,0.508
2015-03-07 00:43:00,1969E-3,5C000000,-0724,0836,12157,027.0,045.4,0.459,744.0,01.18,0.508
2015-03-07 00:44:00,1960E-3,5C000000,-0724,0836,12067,027.0,045.4,0.459,744.0,01.18,0.508
2015-03-07 00:45:00,1956E-3,5C000000,-0724,0836,12114,027.0,045.4,0.459,744.0,01.18,0.508
2015-03-07 00:46:00,1931E-3,5C000000,-0724,0837,12199,027.0,045.4,0.459,744.0,01.18,0.508
2015-03-07 00:47:00,1985E-3,5C000000,-0724,0837,12079,027.0,045.4,0.460,744.0,01.18,0.508
2015-03-07 00:48:00,1934E-3,5C000000,-0724,0836,12082,027.1,045.4,0.459,744.1,01.18,0.508
2015-03-07 00:49:00,1909E-3,5C000000,-0724,0837,11977,027.1,045.4,0.459,744.0,01.18,0.508
2015-03-07 00:50:00,1971E-3,5C000000,-0724,0837,12171,027.1,045.4,0.459,744.0,01.18,0.508
2015-03-07 00:51:00,1840E-3,5C000000,-0724,0836,12160,027.1,045.4,0.459,744.1,01.18,0.508
2015-03-07 00:52:00,1902E-3,5C000000,-0724,0836,12134,027.0,045.4,0.460,744.1,01.18,0.508
2015-03-07 00:53:00,1968E-3,5C000000,-0724,0837,12200,027.0,045.4,0.459,744.1,01.18,0.508
2015-03-07 00:54:00,2016E-3,5C000000,-0724,0837,12116,027.0,045.4,0.459,744.1,01.18,0.508
2015-03-07 00:55:00,2002E-3,5C000000,-0724,0836,12261,027.1,045.4,0.459,744.1,01.18,0.508
2015-03-07 00:56:00,1925E-3,5C000000,-0724,0836,12021,027.1,045.4,0.459,744.1,01.18,0.508
2015-03-07 00:57:00,2007E-3,5C000000,-0724,0836,12146,027.1,045.4,0.459,744.2,01.18,0.508
2015-03-07 00:58:00,1984E-3,5C000000,-0724,0836,12108,027.1,045.4,0.460,744.2,01.18,0.508
2015-03-07 00:59:00,2035E-3,5C000000,-0724,0836,12173,027.1,045.4,0.459,744.1,01.18,0.508
2015-03-07 01:00:00,1908E-3,5C000000,-0724,0837,11942,027.1,045.4,0.459,744.1,01.18,0.508
2015-03-07 01:01:00,1974E-3,5C000000,-0724,0837,12088,027.1,045.4,0.459,744.0,01.18,0.508
2015-03-07 01:02:00,1992E-3,5C000000,-0724,0837,12114,027.1,045.4,0.459,744.0,01.18,0.508
2015-03-07 01:03:00,1783E-3,5C000000,-0724,0837,12239,027.1,045.4,0.459,744.0,01.18,0.508
2015-03-07 01:04:00,1928E-3,5C000000,-0724,0837,12183,027.1,045.4,0.459,744.0,01.18,0.508
2015-03-07 01:05:00,1924E-3,5C000000,-0724,0835,12142,027.1,045.4,0.459,744.0,01.18,0.508
2015-03-07 01:06:00,1854E-3,5C000000,-0724,0836,12052,027.1,045.4,0.459,744.0,01.18,0.508
2015-03-07 01:07:00,2120E-3,5C000000,-0724,0836,12134,027.1,045.4,0.459,744.0,01.18,0.508
2015-03-07 01:08:00,1979E-3,5C000000,-0724,0837,12165,027.1,045.4,0.459,744.0,01.18,0.508
2015-03-07 01:09:00,2038E-3,5C000000,-0724,0837,12111,027.2,045.4,0.459,744.0,01.18,0.508
2015-03-07 01:10:00,2071E-3,5C000000,-0724,0836,12062,027.2,045.4,0.459,744.0,01.18,0.508
2015-03-07 01:11:00,2008E-3,5C000000,-0724,0836,11997,027.2,045.4,0.459,744.0,01.18,0.508
2015-03-07 01:12:00,1861E-3,5C000000,-0724,0837,11919,027.2,045.4,0.459,744.0,01.18,0.508
2015-03-07 01:13:00,1890E-3,5C000000,-0724,0836,12350,027.2,045.4,0.459,743.9,01.18,0.508
2015-03-07 01:14:00,1945E-3,5C000000,-0724,0836,12198,027.2,045.4,0.459,744.0,01.18,0.508
2015-03-07 01:15:00,2016E-3,5C000000,-0724,0836,12198,027.2,045.4,0.459,744.0,01.18,0.508
2015-03-07 01:16:00,2026E-3,5C000000,-0724,0837,11978,027.2,045.4,0.459,744.0,01.18,0.508
2015-03-07 01:17:00,1909E-3,5C000000,-0724,0836,12076,027.2,045.4,0.459,744.1,01.18,0.508
2015-03-07 01:18:00,1869E-3,5C000000,-0724,0837,12189,027.2,045.4,0.459,744.0,01.18,0.508
2015-03-07 01:19:00,1929E-3,5C000000,-0724,0836,12189,027.2,045.4,0.459,744.0,01.18,0.508
2015-03-07 01:20:00,1939E-3,5C000000,-0724,0836,12044,027.2,045.4,0.459,743.9,01.18,0.508
2015-03-07 01:21:00,1949E-3,5C000000,-0724,0836,12292,027.2,045.4,0.459,743.9,01.18,0.508
2015-03-07 01:22:00,1915E-3,5C000000,-0724,0837,12165,027.2,045.4,0.459,743.9,01.18,0.508
2015-03-07 01:23:00,1877E-3,5C000000,-0724,0837,12071,027.2,045.4,0.459,743.9,01.18,0.508
2015-03-07 01:24:00,1922E-3,5C000000,-0724,0836,12297,027.2,045.4,0.459,743.8,01.18,0.508
2015-03-07 01:25:00,2030E-3,5C000000,-0724,0837,12148,027.2,045.4,0.459,743.8,01.18,0.508
2015-03-07 01:26:00,1954E-3,5C000000,-0724,0837,12177,027.2,045.4,0.459,743.8,01.18,0.508
2015-03-07 01:27:00,2063E-3,5C000000,-0724,0836,12192,027.2,045.4,0.459,743.8,01.18,0.508
2015-03-07 01:28:00,1956E-3,5C000000,-0724,0836,12099,027.3,045.4,0.459,743.7,01.18,0.508
2015-03-07 01:29:00,1945E-3,5C000000,-0724,0836,11958,027.2,045.4,0.459,743.8,01.18,0.508
2015-03-07 01:30:00,1913E-3,5C000000,-0724,0836,12244,027.2,045.4,0.459,743.7,01.18,0.508
2015-03-07 01:31:00,1968E-3,5C000000,-0724,0836,12282,027.3,045.4,0.459,743.7,01.18,0.508
2015-03-07 01:32:00,1928E-3,5C000000,-0724,0837,12071,027.3,045.4,0.459,743.7,01.18,0.508
2015-03-07 01:33:00,1953E-3,5C000000,-0724,0837,12067,027.3,045.4,0.459,743.7,01.18,0.508
2015-03-07 01:34:00,1897E-3,5C000000,-0724,0837,12272,027.3,045.4,0.459,743.8,01.18,0.508
2015-03-07 01:35:00,1993E-3,5C000000,-0724,0837,12245,027.3,045.4,0.459,743.8,01.18,0.508
2015-03-07 01:36:00,1960E-3,5C000000,-0724,0836,12059,027.2,045.4,0.459,743.8,01.18,0.508
2015-03-07 01:37:00,2026E-3,5C000000,-0724,0837,12071,027.3,045.4,0.459,743.9,01.18,0.508
2015-03-07 01:38:00,1904E-3,5C000000,-0724,0837,12103,027.3,045.4,0.459,744.0,01.18,0.508
2015-03-07 01:39:00,1938E-3,5C000000,-0724,0838,12227,027.3,045.4,0.459,744.0,01.18,0.508
2015-03-07 01:40:00,1926E-3,5C000000,-0724,0837,12130,027.3,045.4,0.459,743.9,01.18,0.508
2015-03-07 01:41:00,1941E-3,5C000000,-0724,0836,12261,027.3,045.4,0.459,744.0,01.18,0.508
2015-03-07 01:42:00,1987E-3,5C000000,-0724,0837,12019,027.3,045.4,0.459,743.8,01.18,0.508
2015-03-07 01:43:00,1959E-3,5C000000,-0724,0836,12172,027.3,045.4,0.459,743.8,01.18,0.508
2015-03-07 01:44:00,1919E-3,5C000000,-0724,0837,12080,027.3,045.4,0.459,743.7,01.18,0.508
2015-03-07 01:45:00,1996E-3,5C000000,-0724,0836,12046,027.3,045.4,0.459,743.8,01.18,0.508
2015-03-07 01:46:00,2023E-3,5C000000,-0724,0837,12151,027.3,045.4,0.459,743.7,01.18,0.508
2015-03-07 01:47:00,2011E-3,5C000000,-0724,0837,11877,027.3,045.4,0.459,743.8,01.18,0.508
2015-03-07 01:48:00,1978E-3,5C000000,-0724,0836,12087,027.3,045.4,0.459,743.8,01.18,0.508
2015-03-07 01:49:00,2090E-3,5C000000,-0724,0837,12153,027.3,045.4,0.459,743.8,01.18,0.508
2015-03-07 01:50:00,1740E-3,5C000000,-0724,0837,12117,027.3,045.4,0.459,743.8,01.18,0.508
2015-03-07 01:51:00,1964E-3,5C000000,-0724,0837,12054,027.3,045.4,0.459,743.8,01.18,0.508
2015-03-07 01:52:00,1927E-3,5C000000,-0724,0836,12135,027.3,045.4,0.459,743.8,01.18,0.508
2015-03-07 01:53:00,1910E-3,5C000000,-0724,0836,12141,027.3,045.4,0.459,743.8,01.18,0.508
2015-03-07 01:54:00,2085E-3,5C000000,-0724,0835,11972,027.4,045.4,0.459,743.8,01.18,0.508
2015-03-07 01:55:00,2082E-3,5C000000,-0724,0837,12312,027.4,045.4,0.459,743.8,01.18,0.508
2015-03-07 01:56:00,1903E-3,5C000000,-0724,0837,12251,027.4,045.4,0.459,743.8,01.18,0.508
2015-03-07 01:57:00,2046E-3,5C000000,-0724,0836,12204,027.4,045.4,0.458,743.8,01.18,0.508
2015-03-07 01:58:00,2005E-3,5C000000,-0724,0837,12249,027.4,045.4,0.459,743.7,01.18,0.508
2015-03-07 01:59:00,1839E-3,5C000000,-0724,0838,12079,027.4,045.4,0.459,743.7,01.18,0.508
2015-03-07 02:00:00,1772E-3,5C000000,-0724,0837,12002,027.4,045.4,0.459,743.6,01.18,0.508
2015-03-07 02:01:00,1911E-3,5C000000,-0724,0837,12049,027.4,045.4,0.459,743.7,01.18,0.508
2015-03-07 02:02:00,2078E-3,5C000000,-0724,0837,12141,027.4,045.4,0.459,743.6,01.18,0.508
2015-03-07 02:03:00,1966E-3,5C000000,-0724,0837,12028,027.4,045.4,0.458,743.6,01.18,0.508
2015-03-07 02:04:00,2064E-3,5C000000,-0724,0837,12194,027.4,045.4,0.458,743.6,01.18,0.508
2015-03-07 02:05:00,1907E-3,5C000000,-0724,0837,11993,027.4,045.4,0.459,743.5,01.18,0.508
2015-03-07 02:06:00,1960E-3,5C000000,-0724,0837,12008,027.4,045.4,0.459,743.5,01.18,0.508
2015-03-07 02:07:00,1888E-3,5C000000,-0724,0837,12168,027.4,045.4,0.459,743.5,01.18,0.508
2015-03-07 02:08:00,2049E-3,5C000000,-0724,0838,12159,027.4,045.4,0.459,743.6,01.18,0.508
2015-03-07 02:09:00,1854E-3,5C000000,-0724,0837,12181,027.5,045.4,0.458,743.6,01.18,0.508
2015-03-07 02:10:00,1982E-3,5C000000,-0724,0837,12186,027.4,045.4,0.459,743.6,01.18,0.508
2015-03-07 02:11:00,2049E-3,5C000000,-0724,0836,12005,027.5,045.4,0.459,743.5,01.18,0.508
2015-03-07 02:12:00,1930E-3,5C000000,-0724,0836,12158,027.4,045.4,0.459,743.5,01.18,0.508
2015-03-07 02:13:00,1934E-3,5C000000,-0724,0836,11941,027.4,045.4,0.459,743.5,01.18,0.508
2015-03-07 02:14:00,1893E-3,5C000000,-0724,0836,12136,027.4,045.4,0.458,743.5,01.18,0.508
2015-03-07 02:15:00,1941E-3,5C000000,-0724,0837,12276,027.5,045.4,0.458,743.4,01.18,0.508
2015-03-07 02:16:00,1968E-3,5C000000,-0724,0837,12291,027.5,045.4,0.458,743.4,01.18,0.508
2015-03-07 02:17:00,1976E-3,5C000000,-0724,0836,12098,027.5,045.5,0.459,743.4,01.18,0.508
2015-03-07 02:18:00,2218E-3,5C000000,-0724,0836,12292,027.5,045.5,0.459,743.5,01.18,0.508
2015-03-07 02:19:00,1914E-3,5C000000,-0724,0836,12156,027.5,045.4,0.459,743.5,01.18,0.508
2015-03-07 02:20:00,1989E-3,5C000000,-0724,0836,12052,027.5,045.4,0.458,743.5,01.18,0.508
2015-03-07 02:21:00,1977E-3,5C000000,-0724,0837,12240,027.5,045.4,0.458,743.5,01.18,0.508
2015-03-07 02:22:00,1834E-3,5C000000,-0724,0836,12096,027.5,045.4,0.458,743.5,01.18,0.508
2015-03-07 02:23:00,1855E-3,5C000000,-0724,0836,12234,027.5,045.4,0.459,743.3,01.18,0.508
2015-03-07 02:24:00,1833E-3,5C000000,-0724,0836,12171,027.5,045.4,0.459,743.4,01.18,0.508
2015-03-07 02:25:00,1977E-3,5C000000,-0724,0836,12037,027.5,045.4,0.458,743.4,01.18,0.508
2015-03-07 02:26:00,1973E-3,5C000000,-0724,0836,12221,027.5,045.4,0.458,743.4,01.18,0.508
2015-03-07 02:27:00,1984E-3,5C000000,-0724,0837,12149,027.5,045.4,0.458,743.3,01.18,0.508
2015-03-07 02:28:00,1845E-3,5C000000,-0724,0837,12176,027.5,045.4,0.458,743.4,01.18,0.508
2015-03-07 02:29:00,2017E-3,5C000000,-0724,0838,12233,027.5,045.4,0.458,743.4,01.18,0.508
2015-03-07 02:30:00,1946E-3,5C000000,-0724,0837,12088,027.5,045.4,0.458,743.3,01.18,0.508
2015-03-07 02:31:00,1945E-3,5C000000,-0724,0836,12190,027.5,045.4,0.458,743.2,01.18,0.508
2015-03-07 02:32:00,1985E-3,5C000000,-0724,0837,12188,027.6,045.4,0.458,743.2,01.18,0.508
2015-03-07 02:33:00,2053E-3,5C000000,-0724,0838,12121,027.6,045.4,0.458,743.3,01.18,0.508
2015-03-07 02:34:00,1982E-3,5C000000,-0724,0837,12110,027.6,045.4,0.458,743.2,01.18,0.508
2015-03-07 02:35:00,1936E-3,5C000000,-0724,0836,12353,027.6,045.4,0.458,743.2,01.18,0.508
2015-03-07 02:36:00,1823E-3,5C000000,-0724,0836,12138,027.6,045.4,0.458,743.2,01.18,0.508
2015-03-07 02:37:00,2052E-3,5C000000,-0724,0837,12257,027.6,045.4,0.458,743.3,01.18,0.508
2015-03-07 02:38:00,1850E-3,5C000000,-0724,0836,12122,027.6,045.4,0.458,743.2,01.18,0.508
2015-03-07 02:39:00,1865E-3,5C000000,-0724,0836,12026,027.6,045.4,0.458,743.2,01.18,0.508
2015-03-07 02:40:00,2034E-3,5C000000,-0724,0836,12159,027.6,045.4,0.458,743.2,01.18,0.508
2015-03-07 02:41:00,1944E-3,5C000000,-0724,0836,12223,027.6,045.4,0.458,743.1,01.18,0.508
2015-03-07 02:42:00,2038E-3,5C000000,-0724,0836,12248,027.6,045.4,0.458,743.1,01.18,0.508
2015-03-07 02:43:00,2008E-3,5C000000,-0724,0837,12164,027.6,045.4,0.458,743.1,01.18,0.508
2015-03-07 02:44:00,1987E-3,5C000000,-0724,0836,12118,027.6,045.4,0.458,743.2,01.18,0.508
2015-03-07 02:45:00,2022E-3,5C000000,-0724,0837,12188,027.6,045.4,0.458,743.2,01.18,0.508
2015-03-07 02:46:00,1950E-3,5C000000,-0724,0837,12147,027.6,045.4,0.458,743.2,01.18,0.508
2015-03-07 02:47:00,1833E-3,5C000000,-0724,0837,12180,027.6,045.4,0.458,743.2,01.18,0.508
2015-03-07 02:48:00,1904E-3,5C000000,-0724,0838,12117,027.6,045.4,0.458,743.2,01.18,0.508
2015-03-07 02:49:00,1949E-3,5C000000,-0724,0837,12081,027.6,045.4,0.458,743.2,01.18,0.508
2015-03-07 02:50:00,1873E-3,5C000000,-0724,0837,12309,027.6,045.4,0.458,743.2,01.18,0.508
2015-03-07 02:51:00,1908E-3,5C000000,-0724,0836,12146,027.6,045.4,0.459,743.2,01.18,0.508
2015-03-07 02:52:00,1833E-3,5C000000,-0724,0836,12030,027.6,045.4,0.458,743.2,01.18,0.508
2015-03-07 02:53:00,1908E-3,5C000000,-0724,0837,12108,027.6,045.4,0.458,743.2,01.18,0.508
2015-03-07 02:54:00,2119E-3,5C000000,-0724,0836,12179,027.6,045.4,0.458,743.2,01.18,0.508
2015-03-07 02:55:00,1961E-3,5C000000,-0724,0837,12044,027.7,045.4,0.458,743.2,01.18,0.508
2015-03-07 02:56:00,1928E-3,5C000000,-0724,0837,12271,027.6,045.4,0.458,743.3,01.18,0.508
2015-03-07 02:57:00,2065E-3,5C000000,-0724,0837,12000,027.7,045.4,0.458,743.2,01.18,0.508
2015-03-07 02:58:00,1896E-3,5C000000,-0724,0837,12105,027.7,045.4,0.458,743.1,01.18,0.508
2015-03-07 02:59:00,2032E-3,5C000000,-0724,0837,12148,027.7,045.4,0.458,743.2,01.18,0.508
2015-03-07 03:00:00,2041E-3,5C000000,-0724,0837,12224,027.7,045.4,0.458,743.1,01.18,0.508
2015-03-07 03:01:00,1907E-3,5C000000,-0724,0837,12140,027.7,045.4,0.458,743.1,01.18,0.508
2015-03-07 03:02:00,1984E-3,5C000000,-0724,0837,12118,027.7,045.4,0.458,743.1,01.18,0.508
2015-03-07 03:03:00,2014E-3,5C000000,-0724,0837,12060,027.7,045.4,0.458,743.1,01.18,0.508
2015-03-07 03:04:00,1816E-3,5C000000,-0724,0837,12108,027.7,045.4,0.458,743.0,01.18,0.508
2015-03-07 03:05:00,1993E-3,5C000000,-0724,0837,12247,027.7,045.4,0.458,742.9,01.18,0.508
2015-03-07 03:06:00,1875E-3,5C000000,-0724,0837,12059,027.7,045.4,0.458,742.9,01.18,0.508
2015-03-07 03:07:00,1927E-3,5C000000,-0724,0838,12128,027.7,045.4,0.458,742.8,01.18,0.508
2015-03-07 03:08:00,1918E-3,5C000000,-0724,0837,12175,027.7,045.4,0.458,742.8,01.18,0.508
2015-03-07 03:09:00,1955E-3,5C000000,-0724,0837,12085,027.7,045.4,0.458,742.8,01.18,0.508
2015-03-07 03:10:00,2037E-3,5C000000,-0724,0837,12227,027.7,045.4,0.458,742.9,01.18,0.508
2015-03-07 03:11:00,2014E-3,5C000000,-0724,0838,12200,027.7,045.4,0.458,742.8,01.18,0.508
2015-03-07 03:12:00,1997E-3,5C000000,-0724,0837,12005,027.7,045.4,0.458,742.9,01.18,0.508
2015-03-07 03:13:00,1956E-3,5C000000,-0724,0837,12103,027.7,045.4,0.458,742.9,01.18,0.508
2015-03-07 03:14:00,1905E-3,5C000000,-0724,0837,12170,027.7,045.4,0.458,742.8,01.18,0.508
2015-03-07 03:15:00,1910E-3,5C000000,-0724,0837,12192,027.7,045.4,0.458,742.8,01.18,0.508
2015-03-07 03:16:00,1978E-3,5C000000,-0724,0838,11998,027.7,045.5,0.458,742.8,01.18,0.508
2015-03-07 03:17:00,1891E-3,5C000000,-0724,0836,12018,027.7,045.4,0.458,742.9,01.18,0.508
2015-03-07 03:18:00,2057E-3,5C000000,-0724,0838,12182,027.7,045.4,0.458,742.9,01.18,0.508
2015-03-07 03:19:00,2080E-3,5C000000,-0724,0837,11945,027.7,045.4,0.458,742.7,01.18,0.508
2015-03-07 03:20:00,1916E-3,5C000000,-0724,0836,12204,027.7,045.4,0.458,742.7,01.18,0.508
2015-03-07 03:21:00,1941E-3,5C000000,-0724,0836,12086,027.8,045.4,0.458,742.8,01.18,0.508
2015-03-07 03:22:00,1798E-3,5C000000,-0724,0837,12142,027.7,045.4,0.458,742.9,01.18,0.508
2015-03-07 03:23:00,2049E-3,5C000000,-0724,0837,11846,027.8,045.4,0.458,742.8,01.18,0.508
2015-03-07 03:24:00,1944E-3,5C000000,-0724,0836,12198,027.8,045.4,0.458,742.8,01.18,0.508
2015-03-07 03:25:00,1927E-3,5C000000,-0724,0838,12031,027.8,045.4,0.458,742.7,01.18,0.508
2015-03-07 03:26:00,1974E-3,5C000000,-0724,0838,12094,027.8,045.4,0.458,742.8,01.18,0.508
2015-03-07 03:27:00,1896E-3,5C000000,-0724,0837,12201,027.8,045.4,0.458,742.8,01.18,0.508
2015-03-07 03:28:00,1782E-3,5C000000,-0724,0836,12117,027.8,045.4,0.458,742.7,01.18,0.508
2015-03-07 03:29:00,1988E-3,5C000000,-0724,0837,12194,027.8,045.4,0.458,742.7,01.18,0.508
2015-03-07 03:30:00,1943E-3,5C000000,-0724,0837,12186,027.8,045.4,0.458,742.7,01.18,0.508
2015-03-07 03:31:00,1887E-3,5C000000,-0724,0837,12159,027.8,045.4,0.458,742.8,01.18,0.508
2015-03-07 03:32:00,1895E-3,5C000000,-0724,0837,12239,027.8,045.4,0.457,742.8,01.18,0.508
2015-03-07 03:33:00,1853E-3,5C000000,-0724,0837,12146,027.8,045.4,0.458,742.8,01.18,0.508
2015-03-07 03:34:00,1911E-3,5C000000,-0724,0838,11986,027.8,045.4,0.458,742.9,01.18,0.508
2015-03-07 03:35:00,2041E-3,5C000000,-0724,0836,12112,027.8,045.4,0.458,742.9,01.18,0.508
2015-03-07 03:36:00,1857E-3,5C000000,-0724,0836,12169,027.8,045.4,0.458,742.8,01.18,0.508
2015-03-07 03:37:00,2048E-3,5C000000,-0724,0837,12227,027.8,045.4,0.458,742.7,01.18,0.508
2015-03-07 03:38:00,1887E-3,5C000000,-0724,0838,12189,027.8,045.4,0.457,742.4,01.18,0.508
2015-03-07 03:39:00,2017E-3,5C000000,-0724,0837,12239,027.8,045.4,0.457,742.2,01.18,0.508
2015-03-07 03:40:00,1909E-3,5C000000,-0724,0837,12128,027.8,045.4,0.457,742.2,01.18,0.508
2015-03-07 03:41:00,1893E-3,5C000000,-0724,0837,12061,027.8,045.4,0.457,742.4,01.18,0.508
2015-03-07 03:42:00,2033E-3,5C000000,-0724,0836,12245,027.8,045.4,0.458,742.3,01.18,0.508
2015-03-07 03:43:00,1938E-3,5C000000,-0724,0837,12178,027.8,045.4,0.458,742.2,01.18,0.508
2015-03-07 03:44:00,1914E-3,5C000000,-0724,0837,12144,027.9,045.4,0.457,742.1,01.18,0.508
2015-03-07 03:45:00,1959E-3,5C000000,-0724,0837,12200,027.8,045.4,0.457,742.0,01.18,0.508
2015-03-07 03:46:00,1930E-3,5C000000,-0724,0837,12207,027.8,045.4,0.457,742.1,01.18,0.508
2015-03-07 03:47:00,1945E-3,5C000000,-0724,0837,12159,027.8,045.4,0.457,742.0,01.18,0.508
2015-03-07 03:48:00,1938E-3,5C000000,-0724,0837,12152,027.8,045.4,0.457,742.2,01.18,0.508
2015-03-07 03:49:00,1844E-3,5C000000,-0724,0837,12134,027.9,045.4,0.457,742.1,01.18,0.508
2015-03-07 03:50:00,2057E-3,5C000000,-0724,0837,12133,027.8,045.4,0.457,742.2,01.18,0.508
2015-03-07 03:51:00,1836E-3,5C000000,-0724,0837,12117,027.8,045.4,0.457,742.3,01.18,0.508
2015-03-07 03:52:00,1969E-3,5C000000,-0724,0837,12144,027.8,045.4,0.457,742.1,01.18,0.508
2015-03-07 03:53:00,1915E-3,5C000000,-0724,0837,11995,027.8,045.4,0.457,742.2,01.18,0.508
2015-03-07 03:54:00,1941E-3,5C000000,-0724,0837,12144,027.8,045.4,0.457,742.3,01.18,0.508
2015-03-07 03:55:00,1800E-3,5C000000,-0724,0837,12180,027.8,045.4,0.457,742.3,01.18,0.508
2015-03-07 03:56:00,1966E-3,5C000000,-0724,0837,12118,027.8,045.4,0.457,742.1,01.18,0.508
2015-03-07 03:57:00,1850E-3,5C000000,-0724,0838,12155,027.8,045.4,0.458,742.1,01.18,0.508
2015-03-07 03:58:00,1846E-3,5C000000,-0724,0837,12236,027.8,045.4,0.458,742.2,01.18,0.508
2015-03-07 03:59:00,1809E-3,5C000000,-0724,0837,12080,027.8,045.4,0.457,742.2,01.18,0.508
2015-03-07 04:00:00,1887E-3,5C000000,-0724,0837,12071,027.8,045.4,0.457,742.4,01.18,0.508
2015-03-07 04:01:00,1919E-3,5C000000,-0724,0837,12172,027.8,045.4,0.457,742.4,01.18,0.508
2015-03-07 04:02:00,1989E-3,5C000000,-0724,0837,11837,027.9,045.4,0.458,742.4,01.18,0.508
2015-03-07 04:03:00,1873E-3,5C000000,-0724,0838,12110,027.9,045.4,0.458,742.6,01.18,0.508
2015-03-07 04:04:00,2032E-3,5C000000,-0724,0837,12216,027.9,045.4,0.458,742.6,01.18,0.508
2015-03-07 04:05:00,1858E-3,5C000000,-0724,0837,12178,027.9,045.4,0.458,742.6,01.18,0.508
2015-03-07 04:06:00,2006E-3,5C000000,-0724,0838,12138,027.8,045.4,0.458,742.6,01.18,0.508
2015-03-07 04:07:00,1911E-3,5C000000,-0724,0837,12276,027.9,045.4,0.458,742.6,01.18,0.508
2015-03-07 04:08:00,1974E-3,5C000000,-0724,0837,12066,027.9,045.4,0.458,742.6,01.18,0.508
2015-03-07 04:09:00,1832E-3,5C000000,-0724,0837,11929,027.9,045.4,0.458,742.6,01.18,0.508
2015-03-07 04:10:00,1907E-3,5C000000,-0724,0837,12158,027.9,045.4,0.457,742.6,01.18,0.508
2015-03-07 04:11:00,1930E-3,5C000000,-0724,0837,12077,027.9,045.4,0.457,742.7,01.18,0.508
2015-03-07 04:12:00,1878E-3,5C000000,-0724,0837,12294,027.9,045.5,0.457,742.6,01.18,0.508
2015-03-07 04:13:00,1847E-3,5C000000,-0724,0836,12002,027.9,045.4,0.458,742.6,01.18,0.508
2015-03-07 04:14:00,1794E-3,5C000000,-0724,0837,12264,027.9,045.4,0.458,742.6,01.18,0.508
2015-03-07 04:15:00,1972E-3,5C000000,-0724,0836,12113,027.9,045.4,0.458,742.3,01.18,0.508
2015-03-07 04:16:00,1897E-3,5C000000,-0724,0837,12075,027.9,045.4,0.457,742.1,01.18,0.508
2015-03-07 04:17:00,1938E-3,5C000000,-0724,0837,12226,027.9,045.4,0.457,741.9,01.18,0.508
2015-03-07 04:18:00,2027E-3,5C000000,-0724,0837,12203,027.9,045.4,0.457,742.0,01.18,0.508
2015-03-07 04:19:00,2005E-3,5C000000,-0724,0837,12083,027.9,045.4,0.457,742.0,01.18,0.508
2015-03-07 04:20:00,1864E-3,5C000000,-0724,0837,12122,027.9,045.4,0.457,742.0,01.18,0.508